Bryce, UT

9:36 PM MST on February 10, 2016 (GMT -0700)
Bryce Canyon

Weather History for KBCE - November, 2012

Change the Weather History Date:

Friday, November 9, 2012

  Actual Average Record
Temperature  
Mean Temperature 34 °F -  
Max Temperature 44 °F 46 °F 64 °F (1980)
Min Temperature 21 °F 20 °F -2 °F (2011)
Degree Days  
Heating Degree Days 32    
Moisture  
Dew Point 31 °F    
Average Humidity 85    
Maximum Humidity 93    
Minimum Humidity 65    
Precipitation  
Precipitation 0.38 in - - ()
Sea Level Pressure  
Sea Level Pressure 29.62 in    
Wind  
Wind Speed 16 mph (SSW)    
Max Wind Speed 28 mph    
Max Gust Speed 40 mph    
Visibility 6 miles    
Events Fog , Rain , Snow    
Averages and records for this station are not official NWS values.
T = Trace of Precipitation, MM = Missing Value Source: NWS Daily Summary

Daily Weather History Graph

Daily Weather History Graph

Search for Another Location

Airport or City:

Trip Planner

Search our weather history database for the weather conditions in past years. The results will help you decide how hot, cold, wet, or windy it might be!

Date:

Astronomy

Nov. 09, 2012 Rise Set
Actual Time 7:02 AM MST 5:21 PM MST
Civil Twilight 6:35 AM MST 5:49 PM MST
Nautical Twilight 6:03 AM MST 6:20 PM MST
Astronomical Twilight 5:32 AM MST 6:51 PM MST
Moon 2:10 AM MST (11/9) 2:32 PM MST (11/9)
Length of Visible Light 11h 14m
Length of Day
10h 18m
Waning Crescent, 22% of the Moon is Illuminated
Nov 9
Waning Crescent
Nov 13
New
Nov 20
First Quarter
Nov 28
Full
Dec 6
Last Quarter

Hourly Weather History & Observations

Time (MST) Temp. Windchill Dew Point Humidity Pressure Visibility Wind Dir Wind Speed Gust Speed Precip Events Conditions
12:53 AM 41.0 °F 32.5 °F 37.9 °F 89% 29.60 in 10.0 mi SSE 17.3 mph 28.8 mph 0.05 in   Overcast
1:50 AM 41.0 °F 33.5 °F 37.4 °F 87% 29.83 in 10.0 mi SE 13.8 mph 26.5 mph 0.00 in Rain Light Rain
1:53 AM 41.0 °F 32.8 °F 39.0 °F 93% 29.57 in 10.0 mi SE 16.1 mph 26.5 mph 0.01 in Rain Light Rain
2:14 AM 41.0 °F 32.2 °F 39.2 °F 93% 29.82 in 10.0 mi SSE 18.4 mph 28.8 mph 0.01 in Rain Light Rain
2:40 AM 41.0 °F 32.5 °F 37.4 °F 87% 29.83 in 10.0 mi South 17.3 mph 25.3 mph 0.01 in Rain Light Rain
2:53 AM 41.0 °F 33.5 °F 39.0 °F 93% 29.57 in 10.0 mi SSE 13.8 mph - 0.02 in Rain Light Rain
3:53 AM 42.1 °F 36.1 °F 36.0 °F 79% 29.55 in 10.0 mi SSE 10.4 mph 26.5 mph 0.00 in   Overcast
4:53 AM 41.0 °F 33.1 °F 36.0 °F 82% 29.56 in 10.0 mi SSE 15.0 mph 23.0 mph N/A   Overcast
5:53 AM 41.0 °F 31.1 °F 34.0 °F 76% 29.55 in 10.0 mi South 23.0 mph 33.4 mph N/A   Mostly Cloudy
6:53 AM 39.0 °F 28.8 °F 35.1 °F 86% 29.55 in 10.0 mi South 21.9 mph 31.1 mph 0.01 in Rain Light Rain
7:04 AM 39.2 °F 28.5 °F 33.8 °F 81% 29.76 in 10.0 mi South 24.2 mph 33.4 mph 0.00 in   Scattered Clouds
7:53 AM 37.9 °F 26.8 °F 34.0 °F 86% 29.57 in 6.0 mi South 24.2 mph 35.7 mph 0.01 in Rain Light Rain
8:24 AM 37.4 °F 25.6 °F 35.6 °F 93% 29.78 in 1.8 mi SSW 26.5 mph 40.3 mph 0.03 in Snow Light Snow
8:36 AM 37.4 °F 28.5 °F 35.6 °F 93% 29.78 in 3.0 mi South 15.0 mph 29.9 mph 0.05 in Snow Light Snow
8:53 AM 39.0 °F 30.3 °F 36.0 °F 89% 29.60 in 6.0 mi SSW 16.1 mph 25.3 mph 0.06 in Rain Light Rain
9:53 AM 39.9 °F 30.8 °F 35.1 °F 83% 29.57 in 10.0 mi South 18.4 mph 33.4 mph 0.03 in Rain Light Rain
10:53 AM 39.9 °F 30.2 °F 36.0 °F 86% 29.56 in 6.0 mi SSW 20.7 mph 29.9 mph 0.03 in Rain Light Rain
11:53 AM 37.0 °F 27.0 °F 34.0 °F 89% 29.55 in 3.0 mi SSW 18.4 mph 27.6 mph 0.07 in Rain Rain
12:39 PM 41.0 °F 32.2 °F 35.6 °F 81% 29.70 in 10.0 mi South 18.4 mph 26.5 mph 0.02 in   Scattered Clouds
12:53 PM 41.0 °F 31.9 °F 35.1 °F 79% 29.49 in 10.0 mi South 19.6 mph 26.5 mph 0.02 in   Partly Cloudy
1:53 PM 44.1 °F 35.0 °F 33.1 °F 65% 29.44 in 10.0 mi South 24.2 mph 35.7 mph N/A   Partly Cloudy
2:53 PM 41.0 °F 32.5 °F 32.0 °F 70% 29.45 in 10.0 mi SSW 17.3 mph 33.4 mph 0.00 in   Overcast
3:53 PM 39.9 °F 31.8 °F 28.9 °F 65% 29.45 in 10.0 mi SSW 15.0 mph 24.2 mph 0.00 in   Mostly Cloudy
4:14 PM 37.4 °F 29.8 °F 32.0 °F 81% 29.66 in 10.0 mi SSW 11.5 mph - N/A   Overcast
4:26 PM 35.6 °F 25.9 °F 32.0 °F 87% 29.66 in 2.5 mi SSW 16.1 mph 26.5 mph 0.01 in Snow Light Snow
4:44 PM 33.8 °F 25.3 °F 32.0 °F 93% 29.65 in 7.0 mi SSW 11.5 mph 17.3 mph 0.03 in Snow Light Snow
4:53 PM 36.0 °F 26.3 °F 32.0 °F 86% 29.47 in 10.0 mi SW 16.1 mph 24.2 mph 0.03 in   Mostly Cloudy
5:03 PM 33.8 °F 23.5 °F 30.2 °F 87% 29.66 in 1.5 mi SW 16.1 mph 27.6 mph 0.00 in Snow Light Snow
5:07 PM 33.8 °F 22.5 °F 30.2 °F 87% 29.65 in 0.8 mi SW 19.6 mph 27.6 mph 0.00 in Snow Light Snow
5:22 PM 33.8 °F 25.3 °F 30.2 °F 87% 29.64 in 1.5 mi SSW 11.5 mph - 0.02 in Snow Light Snow
5:26 PM 33.8 °F 27.0 °F 30.2 °F 87% 29.64 in 3.0 mi SSW 8.1 mph - 0.02 in Snow Light Snow
5:33 PM 33.8 °F 25.3 °F 30.2 °F 87% 29.65 in 9.0 mi SSW 11.5 mph 19.6 mph 0.02 in   Mostly Cloudy
5:49 PM 33.8 °F 21.9 °F 30.2 °F 87% 29.66 in 1.8 mi SSW 21.9 mph 28.8 mph 0.02 in Snow Light Snow
5:53 PM 33.1 °F 19.6 °F 30.0 °F 89% 29.49 in 0.8 mi SSW 27.6 mph 34.5 mph 0.02 in Snow Light Snow
6:02 PM 32.0 °F 19.2 °F 30.2 °F 93% 29.66 in 0.5 mi SW 23.0 mph 32.2 mph 0.01 in Fog , Snow Snow
6:14 PM 32.0 °F 22.1 °F 30.2 °F 93% 29.66 in 1.0 mi SSW 13.8 mph - 0.01 in Snow Light Snow
6:20 PM 33.8 °F 23.9 °F 30.2 °F 87% 29.66 in 4.0 mi SW 15.0 mph - 0.01 in Snow Light Snow
6:39 PM 32.0 °F 21.2 °F 30.2 °F 93% 29.66 in 2.5 mi SW 16.1 mph 21.9 mph 0.02 in Snow Light Snow
6:53 PM 32.0 °F 23.6 °F 28.9 °F 88% 29.51 in 5.0 mi SW 10.4 mph - 0.02 in Snow Light Snow
7:00 PM 32.0 °F 23.6 °F 28.4 °F 87% 29.66 in 6.0 mi SW 10.4 mph - 0.00 in Snow Light Snow
7:20 PM 30.2 °F 19.8 °F 28.4 °F 93% 29.67 in 1.8 mi WSW 13.8 mph 20.7 mph 0.00 in Snow Light Snow
7:29 PM 28.4 °F 16.2 °F 26.6 °F 93% 29.66 in 2.0 mi WSW 17.3 mph 27.6 mph 0.00 in Snow Light Snow
7:37 PM 28.4 °F 15.8 °F 24.8 °F 86% 29.65 in 1.5 mi WSW 18.4 mph 26.5 mph 0.00 in Snow Light Snow
7:42 PM 28.4 °F 16.2 °F 24.8 °F 86% 29.66 in 2.0 mi WSW 17.3 mph 26.5 mph 0.00 in Snow Light Snow
7:51 PM 28.4 °F 17.5 °F 24.8 °F 86% 29.67 in 5.0 mi WSW 13.8 mph 26.5 mph 0.00 in Snow Light Snow
7:53 PM 28.0 °F 17.5 °F 24.1 °F 85% 29.55 in 5.0 mi SW 12.7 mph 26.5 mph 0.00 in Snow Light Snow
8:05 PM 28.4 °F 18.5 °F 24.8 °F 86% 29.68 in 5.0 mi SW 11.5 mph - 0.00 in Snow Light Snow
8:53 PM 26.1 °F 19.4 °F 19.0 °F 75% 29.55 in 10.0 mi SW 5.8 mph - 0.00 in   Mostly Cloudy
9:53 PM 25.0 °F - 18.0 °F 75% 29.57 in 10.0 mi Calm Calm - N/A   Mostly Cloudy
10:53 PM 24.1 °F 16.0 °F 19.9 °F 84% 29.58 in 6.0 mi SW 6.9 mph - 0.00 in Snow Light Snow
11:00 PM 24.8 °F 16.9 °F 19.4 °F 80% 29.69 in 6.0 mi WSW 6.9 mph - 0.00 in Snow Light Snow
11:16 PM 23.0 °F 18.4 °F 19.4 °F 86% 29.68 in 9.0 mi West 3.5 mph - 0.00 in   Mostly Cloudy
11:53 PM 21.0 °F 16.2 °F 16.0 °F 81% 29.60 in 10.0 mi South 3.5 mph - 0.00 in   Clear